Ketchikan, AK

2:28 PM AKDT on March 28, 2017 (GMT -0800)
Ketchikan International

Weather History for PAKT - November, 2012

Change the Weather History Date:

Saturday, November 3, 2012

  Actual Average Record
Temperature  
Mean Temperature 46 °F -  
Max Temperature 48 °F 48 °F 65 °F (1962)
Min Temperature 44 °F 37 °F 22 °F (1973)
Degree Days  
Heating Degree Days 19    
Moisture  
Dew Point 42 °F    
Average Humidity 86    
Maximum Humidity 93    
Minimum Humidity 76    
Precipitation  
Precipitation 0.17 in - - ()
Sea Level Pressure  
Sea Level Pressure 29.69 in    
Wind  
Wind Speed 13 mph (SE)    
Max Wind Speed 22 mph    
Max Gust Speed 32 mph    
Visibility 10 miles    
Events Rain    
Averages and records for this station are not official NWS values.
T = Trace of Precipitation, MM = Missing Value Source: NWS Daily Summary

Daily Weather History Graph

Daily Weather History Graph

Search for Another Location

Airport or City:

Trip Planner

Search our weather history database for the weather conditions in past years. The results will help you decide how hot, cold, wet, or windy it might be!

Date:

Astronomy

Nov. 03, 2012 Rise Set
Actual Time 7:57 AM AKDT 5:02 PM AKDT
Civil Twilight 7:17 AM AKDT 5:42 PM AKDT
Nautical Twilight 6:34 AM AKDT 6:25 PM AKDT
Astronomical Twilight 5:51 AM AKDT 7:08 PM AKDT
Moon 8:33 PM AKDT (11/3) 12:24 PM AKDT (11/3)
Length of Visible Light 10h 24m
Length of Day
9h 05m
Waning Gibbous, 79% of the Moon is Illuminated
Nov 3
Waning Gibbous
Nov 6
Last Quarter
Nov 13
New
Nov 20
First Quarter
Nov 28
Full

Hourly Weather History & Observations

Time (AKDT) Temp. Windchill Dew Point Humidity Pressure Visibility Wind Dir Wind Speed Gust Speed Precip Events Conditions
12:53 AM 44.1 °F 40.1 °F 42.1 °F 93% 29.66 in 10.0 mi South 6.9 mph - 0.02 in Rain Light Rain
1:53 AM 44.1 °F 39.0 °F 41.0 °F 89% 29.66 in 10.0 mi SSE 9.2 mph - 0.00 in   Overcast
2:19 AM 44.6 °F 39.2 °F 42.8 °F 93% 29.64 in 10.0 mi SSE 10.4 mph - 0.00 in   Overcast
2:53 AM 45.0 °F 39.3 °F 41.0 °F 86% 29.64 in 10.0 mi SSE 11.5 mph - 0.00 in   Overcast
3:53 AM 45.0 °F 37.4 °F 41.0 °F 86% 29.62 in 10.0 mi SE 18.4 mph 26.5 mph N/A   Overcast
4:18 AM 44.6 °F 37.8 °F 39.2 °F 81% 29.62 in 10.0 mi SSE 15.0 mph 25.3 mph N/A   Overcast
4:53 AM 45.0 °F 38.2 °F 39.9 °F 82% 29.62 in 10.0 mi SE 15.0 mph 20.7 mph 0.00 in Rain Light Rain
5:53 AM 46.0 °F 38.3 °F 39.0 °F 76% 29.61 in 10.0 mi SE 20.7 mph 26.5 mph 0.00 in   Overcast
6:06 AM 46.4 °F 38.7 °F 39.2 °F 76% 29.60 in 10.0 mi SE 20.7 mph 32.2 mph N/A   Overcast
6:53 AM 44.6 °F 36.9 °F 39.2 °F 81% 29.60 in 6.0 mi SE 18.4 mph 29.9 mph N/A Rain Rain
7:53 AM 44.6 °F 36.6 °F 41.0 °F 87% 29.59 in 10.0 mi SE 19.6 mph 29.9 mph N/A Rain Light Rain
8:53 AM 44.6 °F 36.6 °F 39.2 °F 81% 29.61 in 10.0 mi SE 19.6 mph 29.9 mph N/A Rain Light Rain
9:53 AM 44.6 °F 36.4 °F 39.2 °F 81% 29.62 in 10.0 mi SE 20.7 mph 29.9 mph N/A Rain Light Rain
10:53 AM 45.0 °F 37.1 °F 41.0 °F 86% 29.62 in 10.0 mi SE 19.6 mph 26.5 mph 0.00 in Rain Light Rain
11:53 AM 44.1 °F 35.4 °F 39.9 °F 85% 29.65 in 4.0 mi SE 21.9 mph 29.9 mph 0.10 in Rain Rain
12:53 PM 44.1 °F 37.1 °F 41.0 °F 89% 29.68 in 9.0 mi SSE 15.0 mph 19.6 mph 0.04 in Rain Light Rain
1:53 PM 46.9 °F - 44.1 °F 90% 29.70 in 10.0 mi SE 15.0 mph - 0.01 in   Mostly Cloudy
2:53 PM 48.0 °F - 45.0 °F 89% 29.71 in 10.0 mi SE 13.8 mph - N/A   Mostly Cloudy
3:53 PM 46.0 °F 41.0 °F 43.0 °F 89% 29.72 in 10.0 mi SSE 10.4 mph 18.4 mph 0.00 in   Overcast
4:53 PM 46.0 °F 41.4 °F 43.0 °F 89% 29.74 in 10.0 mi SE 9.2 mph - N/A   Overcast
5:53 PM 46.0 °F 40.6 °F 43.0 °F 89% 29.76 in 10.0 mi SE 11.5 mph - N/A   Overcast
6:53 PM 46.9 °F - 43.0 °F 86% 29.77 in 10.0 mi SE 15.0 mph - N/A   Overcast
7:53 PM 46.0 °F 41.0 °F 43.0 °F 89% 29.78 in 10.0 mi SE 10.4 mph - N/A   Overcast
8:53 PM 46.0 °F 40.6 °F 43.0 °F 89% 29.79 in 10.0 mi SSE 11.5 mph - N/A   Overcast
8:57 PM 46.4 °F 41.1 °F 42.8 °F 87% 29.79 in 10.0 mi SE 11.5 mph - N/A   Overcast
8:58 PM 46.4 °F 41.1 °F 42.8 °F 87% 29.79 in 10.0 mi SE 11.5 mph 19.6 mph N/A   Overcast
9:53 PM 46.0 °F 40.6 °F 43.0 °F 89% 29.80 in 10.0 mi SSE 11.5 mph - N/A   Overcast
10:53 PM 46.0 °F 40.6 °F 42.1 °F 86% 29.81 in 10.0 mi SSE 11.5 mph - N/A   Overcast
11:53 PM 46.9 °F - 42.1 °F 83% 29.80 in 10.0 mi SSE 9.2 mph 19.6 mph N/A   Overcast